Location: Azul
(36.7830°S, 59.8500°W)
Time: 00:15:46
(UTC-03:00)

Envisat - Visible Passes

Search period start: 12 November 2019 00:00
Search period end: 22 November 2019 00:00
Orbit: 764 x 766 km, 98.1° (Epoch: 11 November)

Date Brightness Start Highest point End Pass type
(mag) Time Alt. Az. Time Alt. Az. Time Alt. Az.
13 Nov 5.7 20:58:04 10° SSW 21:01:56 22° WSW 21:05:47 10° WNW visible
14 Nov 4.2 20:20:30 10° S 20:25:27 48° WSW 20:30:20 10° NW visible
15 Nov 6.2 21:25:00 10° SW 21:27:06 13° WSW 21:29:12 10° W visible
16 Nov 5.3 20:46:28 10° SSW 20:50:46 27° WSW 20:55:02 10° NW visible
17 Nov 3.7 20:09:08 10° S 20:14:14 62° WSW 20:19:15 10° NNW visible
18 Nov 6.0 21:12:56 10° SSW 21:15:59 16° WSW 21:19:00 10° W visible
19 Nov 4.9 20:34:57 10° S 20:39:35 34° WSW 20:44:10 10° NW visible
21 Nov 5.9 21:01:10 10° SSW 21:04:51 20° WSW 21:08:29 10° WNW visible
